Vancouver, British Columbia

1:59 AM PST on December 13, 2017 (GMT -0800)
Vancouver International Airport

Weather History for CYVR - January, 2013

Change the Weather History Date:

Friday, January 11, 2013

  Actual Average Record
Temperature  
Mean Temperature 30 °F -  
Max Temperature 37 °F 43 °F 50 °F (1999)
Min Temperature 23 °F 33 °F 15 °F (1998)
Degree Days  
Heating Degree Days 35    
Moisture  
Dew Point 23 °F    
Average Humidity 71    
Maximum Humidity 86    
Minimum Humidity 48    
Precipitation  
Precipitation 0.00 in 0.18 in - ()
Sea Level Pressure  
Sea Level Pressure 30.30 in    
Wind  
Wind Speed 3 mph ()    
Max Wind Speed 12 mph    
Max Gust Speed -    
Visibility 17.9 miles    
Events      
Averages and records for this station are not official NWS values.
T = Trace of Precipitation, MM = Missing Value Source: Averaged Metar Reports

Daily Weather History Graph

Daily Weather History Graph

Search for Another Location

Airport or City:

Trip Planner

Search our weather history database for the weather conditions in past years. The results will help you decide how hot, cold, wet, or windy it might be!

Date:

Astronomy

Jan. 11, 2013 Rise Set
Actual Time 8:04 AM PST 4:37 PM PST
Civil Twilight 7:27 AM PST 5:14 PM PST
Nautical Twilight 6:47 AM PST 5:54 PM PST
Astronomical Twilight 6:09 AM PST 6:32 PM PST
Moon 7:37 AM PST (1/11) 5:08 PM PST (1/11)
Length of Visible Light 9h 46m
Length of Day
8h 33m
New Moon, 0% of the Moon is Illuminated
Jan 11
New Moon
Jan 18
First Quarter
Jan 26
Full
Feb 3
Last Quarter
Feb 9
New

Hourly Weather History & Observations

Time (PST) Temp. Windchill Dew Point Humidity Pressure Visibility Wind Dir Wind Speed Gust Speed Precip Events Conditions
12:00 AM 30.2 °F - 23.0 °F 75% 30.17 in 20.0 mi Calm Calm - N/A   Partly Cloudy
1:00 AM 30.2 °F - 21.2 °F 69% 30.19 in 20.0 mi NNW 2.3 mph - N/A   Partly Cloudy
2:00 AM 30.2 °F 25.4 °F 21.2 °F 69% 30.20 in 20.0 mi East 4.6 mph - N/A   Partly Cloudy
3:00 AM 28.4 °F - 23.0 °F 80% 30.21 in 20.0 mi Calm Calm - N/A   Partly Cloudy
4:00 AM 27 °F - 22 °F 73% 30.23 in 19 mi WNW 2.3 mph - -  
4:00 AM 26.6 °F - 21.2 °F 80% 30.23 in 20.0 mi WNW 2.3 mph - N/A   Clear
5:00 AM 26.6 °F 22.6 °F 21.2 °F 80% 30.24 in 20.0 mi ESE 3.5 mph - N/A   Clear
6:00 AM 26.6 °F 22.6 °F 21.2 °F 80% 30.26 in 20.0 mi NE 3.5 mph - N/A   Clear
7:00 AM 28.4 °F - 21.2 °F 74% 30.28 in 20.0 mi Calm Calm - N/A   Clear
8:00 AM 28.4 °F - 21.2 °F 74% 30.30 in 30.0 mi Calm Calm - N/A   Partly Cloudy
9:00 AM 30.2 °F - 21.2 °F 69% 30.32 in 30.0 mi Calm Calm - N/A   Partly Cloudy
10:00 AM 33 °F - 21 °F 48% 30.34 in 28 mi Calm Calm - -   Scattered Clouds
10:00 AM 32.0 °F - 21.2 °F 64% 30.34 in 30.0 mi Calm Calm - N/A   Partly Cloudy
11:00 AM 37.4 °F - 21.2 °F 52% 30.33 in 30.0 mi SSW 2.3 mph - N/A   Partly Cloudy
12:00 PM 35.6 °F 28.6 °F 23.0 °F 60% 30.33 in 30.0 mi NW 9.2 mph - N/A   Partly Cloudy
1:00 PM 37.4 °F 29.8 °F 21.2 °F 52% 30.31 in 30.0 mi NW 11.5 mph - N/A   Partly Cloudy
2:00 PM 37.4 °F 32.1 °F 24.8 °F 60% 30.32 in 30.0 mi WNW 6.9 mph - N/A   Partly Cloudy
3:00 PM 37.4 °F 31.4 °F 26.6 °F 65% 30.33 in 30.0 mi West 8.1 mph - N/A   Partly Cloudy
4:00 PM 35 °F - 26 °F 58% 30.34 in 28 mi West 4.6 mph - -   Clear
4:00 PM 35.6 °F 31.7 °F 24.8 °F 65% 30.34 in 30.0 mi West 4.6 mph - N/A   Mostly Cloudy
5:00 PM 35.6 °F - 26.6 °F 70% 30.34 in 30.0 mi South 2.3 mph - N/A   Mostly Cloudy
6:00 PM 32.0 °F - 26.6 °F 80% 30.34 in 30.0 mi SW 2.3 mph - N/A   Mostly Cloudy
7:00 PM 32.0 °F - 26.6 °F 80% 30.33 in 15.0 mi Calm Calm - N/A   Overcast
8:00 PM 30.2 °F 24.3 °F 24.8 °F 80% 30.33 in 15.0 mi East 5.8 mph - N/A   Mostly Cloudy
9:00 PM 28.4 °F 22.2 °F 23.0 °F 80% 30.34 in 15.0 mi East 5.8 mph - N/A   Mostly Cloudy
10:00 PM 28 °F - 24 °F 77% 30.34 in 15 mi East 4.6 mph - -   Clear
10:00 PM 28.4 °F 23.3 °F 23.0 °F 80% 30.34 in 15.0 mi East 4.6 mph - N/A   Mostly Cloudy
11:00 PM 26.6 °F 19.1 °F 23.0 °F 86% 30.34 in 15.0 mi East 6.9 mph - N/A   Scattered Clouds